sat.trackr.live / text

‹ back to catalog

STARLINK-1225

NORAD 45187 · 2020-012K

PAYLOAD ACTIVE UNKNOWN

§ Identity

Operator
Country
US
Launch date
2020-02-17
Launch site
AFETR
Launch vehicle
Mass (kg)
RCS (m²)

Purposes: comms

External: N2YO · Heavens-Above · Gunter

§ Orbital elements

Epoch: 2026-05-25T02:31:16.917888Z

Period
93.89 min
Inclination
53.1576°
Eccentricity
0.0002772
Mean motion
15.33659409 rev/d
Perigee alt
463.0 km
Apogee alt
466.8 km
Semi-major
6,843.0 km
B*
1.6041e-3
RAAN
44.1274°
Arg perigee
112.4977°
Mean anomaly
247.6319°
Rev number
34,664

§ Raw data

STARLINK-12251 45187U 20012K   26145.10505692  .00052944  00000+0  16041-2 0  99932 45187  53.1576  44.1274 0002772 112.4977 247.6319 15.33659409346645

JSON: /api/v1/satellites/45187 · /tle

For live sub-satellite position, see the globe view (requires WebGL).

§ Visibility from observer

Set your observer location to see the next 7 days of passes ≥ 10°. The values pass through the URL so the page stays shareable.

No JS? Fill the form by hand. The geolocation button needs JavaScript.